EW8359 Weather Reports


time (UTC)temp
F
wind
direction
speed
knots
gust
knots
rain 1hr
in
rain 24hr
in
rain mn
in
humidity
%
barometer
mb
20260508094505 39 221 0.0 3.5 0.00 0.00 0.00 76 1006.0
20260508093007 38 267 0.0 0.9 0.00 0.00 0.00 77 1005.9
20260508091505 38 247 0.0 0.0 0.00 0.00 0.00 76 1005.8
20260508090003 36 228 0.0 2.6 0.00 0.00 0.00 79 1005.6
20260508084502 36 241 0.0 0.0 0.00 0.00 0.00 79 1005.4
20260508083100 36 241 0.0 0.0 0.00 0.00 0.00 78 1005.1
20260508081608 36 276 0.0 0.0 0.00 0.00 0.00 79 1005.2
20260508080059 36 297 0.0 0.0 0.00 0.00 0.00 80 1005.1
20260508074600 37 308 0.0 0.0 0.00 0.00 0.00 79 1005.0
20260508073103 37 308 0.0 0.0 0.00 0.00 0.00 77 1005.0
20260508071552 37 308 0.0 0.0 0.00 0.00 0.00 78 1005.0
20260508070051 37 308 0.0 0.0 0.00 0.00 0.00 77 1005.0
20260508064602 37 308 0.0 0.0 0.00 0.00 0.00 77 1005.0
20260508063045 37 308 0.0 0.0 0.00 0.00 0.00 77 1005.1
20260508061550 38 308 0.0 0.0 0.00 0.00 0.00 75 1005.4
20260508060042 38 308 0.0 0.0 0.00 0.00 0.00 74 1005.5
20260508054602 39 308 0.0 0.0 0.00 0.00 0.00 75 1005.6
20260508053035 39 308 0.0 0.0 0.00 0.00 0.00 74 1005.6
20260508051533 39 308 0.0 0.0 0.00 0.00 0.00 75 1005.7
20260508050035 40 308 0.0 0.0 0.00 0.00 0.00 71 1006.0
20260508044526 41 308 0.0 0.0 0.00 0.00 0.00 70 1005.9
20260508043030 42 308 0.0 0.0 0.00 0.00 0.00 66 1005.9
20260508041517 43 308 0.0 0.0 0.00 0.00 0.00 64 1005.9
20260508040015 44 254 0.0 0.0 0.00 0.00 0.00 62 1005.8
20260508034521 45 254 0.0 0.0 0.00 0.05 0.00 59 1005.9
20260508033011 46 255 0.0 0.0 0.00 0.05 0.00 56 1005.9
20260508031508 47 281 0.0 0.0 0.00 0.05 0.00 54 1005.8
20260508030007 46 283 0.0 0.0 0.00 0.05 0.00 53 1005.8
20260508024510 47 262 0.0 0.0 0.00 0.06 0.00 54 1005.9
20260508023004 47 257 0.0 2.6 0.00 0.06 0.00 52 1005.7
20260508021502 48 285 0.0 0.9 0.00 0.06 0.00 51 1005.5
20260508014559 49 323 0.0 2.6 0.00 0.06 0.00 50 1005.2
20260508013058 48 297 0.0 5.2 0.00 0.06 0.00 52 1005.0
20260508011606 47 264 0.0 2.6 0.00 0.06 0.00 55 1004.9
20260508010100 47 343 0.0 2.6 0.00 0.06 0.00 61 1004.7
20260508004557 47 243 0.0 0.0 0.00 0.07 0.00 60 1004.3
20260508003056 48 243 0.0 0.0 0.00 0.07 0.00 60 1004.0
20260508001556 49 244 0.0 0.0 0.00 0.07 0.00 59 1003.8
20260508000120 51 244 0.0 0.0 0.00 0.07 0.00 54 1003.6
20260507234554 53 244 0.0 0.0 0.00 0.07 0.00 51 1003.4
20260507233051 55 302 0.0 0.9 0.00 0.07 0.00 43 1003.4
20260507231558 55 87 0.0 3.5 0.00 0.07 0.00 40 1003.3
20260507230050 56 178 0.0 0.0 0.00 0.07 0.00 37 1003.1
20260507224552 57 217 0.0 1.7 0.00 0.07 0.00 34 1002.9
20260507223049 57 198 0.0 4.3 0.00 0.07 0.00 33 1002.7
20260507221550 58 210 0.0 2.6 0.00 0.07 0.00 33 1002.7
20260507220048 58 5 0.0 7.8 0.00 0.07 0.00 34 1002.6
20260507214549 58 98 0.0 9.6 0.00 0.11 0.00 34 1002.7
20260507213047 58 286 0.9 8.7 0.00 0.11 0.00 34 1002.7
20260507211555 61 317 0.9 7.8 0.00 0.11 0.00 33 1002.6
20260507210049 60 279 0.0 6.1 0.00 0.11 0.00 33 1002.6
20260507204546 60 197 0.0 11.3 0.00 0.22 0.00 32 1002.4
20260507203146 60 264 0.9 7.0 0.00 0.22 0.00 34 1002.5
20260507201545 62 277 0.0 9.6 0.00 0.22 0.00 32 1002.5
20260507200043 62 230 1.7 12.2 0.00 0.22 0.00 32 1002.5
20260507194542 61 55 1.7 10.4 0.00 0.33 0.00 33 1002.5
20260507193048 60 319 0.0 4.3 0.00 0.33 0.00 39 1002.6
20260507191541 59 229 0.0 6.1 0.00 0.33 0.00 40 1002.7
20260507190041 59 227 0.0 4.3 0.00 0.33 0.00 37 1002.9
20260507184541 60 192 0.0 4.3 0.00 0.75 0.00 41 1002.8
20260507183038 61 203 0.9 10.4 0.00 0.75 0.00 35 1002.8
20260507181538 62 243 0.9 8.7 0.00 0.75 0.00 35 1002.9
20260507180037 62 254 0.9 12.2 0.00 0.75 0.00 37 1003.0
20260507174546 61 223 0.9 7.8 0.00 0.75 0.00 42 1002.9
20260507173033 59 152 4.3 12.2 0.00 0.75 0.00 44 1003.3
20260507171542 59 269 0.9 13.9 0.00 0.75 0.00 47 1003.3
20260507170032 59 182 1.7 7.8 0.00 0.75 0.00 48 1003.6
20260507164534 59 192 0.0 10.4 0.00 0.75 0.00 52 1003.8
20260507163029 60 187 0.9 7.8 0.00 0.75 0.00 50 1003.7
20260507161530 58 174 1.7 9.6 0.00 0.75 0.00 51 1003.8
20260507160031 59 276 0.9 13.0 0.00 0.75 0.00 49 1004.1
20260507154527 60 192 0.0 7.8 0.00 0.75 0.00 55 1004.3
20260507153028 60 265 0.9 10.4 0.00 0.75 0.00 53 1004.2
20260507151524 59 270 2.6 10.4 0.00 0.75 0.00 54 1004.2
20260507150023 58 229 2.6 14.8 0.00 0.75 0.00 52 1004.2
20260507144522 59 257 0.0 7.8 0.00 0.75 0.00 55 1004.1
20260507143023 59 222 0.0 10.4 0.00 0.75 0.00 51 1004.0
20260507141522 59 246 0.9 6.1 0.00 0.75 0.00 55 1004.0
20260507140032 58 282 0.9 7.8 0.00 0.75 0.00 59 1004.2
20260507134517 58 223 0.9 3.5 0.00 0.75 0.00 58 1004.3
20260507133014 56 279 1.7 7.8 0.00 0.75 0.00 56 1004.5
20260507131512 55 294 0.9 8.7 0.00 0.75 0.00 61 1004.5
20260507130006 55 13 0.0 7.8 0.00 0.75 0.00 61 1004.7
20260507124505 54 215 0.0 7.8 0.00 0.75 0.00 67 1004.8
20260507123106 53 311 0.0 7.0 0.00 0.75 0.00 71 1004.8
20260507121600 53 101 0.0 1.7 0.00 0.75 0.00 74 1004.8
20260507120057 52 216 0.9 8.7 0.00 0.75 0.00 76 1004.8
20260507114556 50 11 2.6 7.8 0.00 0.75 0.00 78 1004.8
20260507113127 48 300 0.0 5.2 0.00 0.75 0.00 85 1004.7
20260507111553 47 208 0.0 0.0 0.00 0.75 0.00 89 1004.6
20260507110052 47 208 0.0 2.6 0.00 0.75 0.00 89 1005.0
20260507104600 47 228 0.0 3.5 0.00 0.75 0.00 90 1005.1
20260507103049 46 239 0.0 1.7 0.00 0.75 0.00 91 1005.0
20260507101553 46 248 0.0 0.0 0.00 0.75 0.00 91 1004.8
20260507100055 46 242 0.0 3.5 0.00 0.75 0.00 92 1004.8